Meteo pe oră la Dziurow

Astăzi, 24 Februarie, Miercuri

Timp Temperatura Precipitaţii Vânt Presiune Umiditate
00:00 +4°C° 0 mm 2 m/s 756 mmHg 81%
01:00 +4°C° 0 mm 2 m/s 756 mmHg 85%
02:00 +4°C° 0 mm 2 m/s 756 mmHg 84%
03:00 +4°C° 0 mm 2 m/s 756 mmHg 84%
04:00 +4°C° 0 mm 2 m/s 756 mmHg 84%
05:00 +4°C° 0 mm 2 m/s 756 mmHg 84%
06:00 +4°C° 0 mm 2 m/s 756 mmHg 85%
07:00 +4°C° 0 mm 2 m/s 756 mmHg 86%
08:00 +5°C° 0 mm 2 m/s 756 mmHg 87%
09:00 +6°C° 0 mm 2 m/s 756 mmHg 89%
10:00 +8°C° 0 mm 2 m/s 756 mmHg 91%
11:00 +9°C° 0 mm 2 m/s 756 mmHg 90%
12:00 +10°C° 0 mm 2 m/s 756 mmHg 89%
13:00 +12°C° 0 mm 2 m/s 756 mmHg 87%
14:00 +12°C° 0 mm 2 m/s 756 mmHg 86%
15:00 +10°C° 0 mm 2 m/s 755 mmHg 85%
16:00 +10°C° 0 mm 2 m/s 755 mmHg 83%
17:00 +9°C° 0 mm 3 m/s 755 mmHg 82%
18:00 +9°C° 0 mm 3 m/s 755 mmHg 81%
19:00 +8°C° 0 mm 3 m/s 755 mmHg 80%
20:00 +8°C° 0 mm 3 m/s 755 mmHg 79%
21:00 +8°C° 0 mm 3 m/s 755 mmHg 78%
22:00 +7°C° 0 mm 3 m/s 755 mmHg 78%
23:00 +7°C° 0 mm 3 m/s 755 mmHg 77%

Mâine, 25 Februarie, Joi

Timp Temperatura Precipitaţii Vânt Presiune Umiditate
00:00 +7°C° 0 mm 3 m/s 755 mmHg 77%
01:00 +7°C° 0 mm 3 m/s 755 mmHg 77%
02:00 +5°C° 0 mm 3 m/s 754 mmHg 79%
03:00 +6°C° 0 mm 2 m/s 754 mmHg 81%
04:00 +5°C° 0 mm 2 m/s 754 mmHg 83%
05:00 +5°C° 0 mm 2 m/s 754 mmHg 82%
06:00 +5°C° 0 mm 2 m/s 754 mmHg 82%
07:00 +5°C° 0 mm 2 m/s 754 mmHg 82%
08:00 +7°C° 0 mm 2 m/s 754 mmHg 79%
09:00 +8°C° 0 mm 2 m/s 754 mmHg 75%
10:00 +10°C° 0 mm 2 m/s 754 mmHg 72%
11:00 +12°C° 0 mm 2 m/s 753 mmHg 68%
12:00 +13°C° 0 mm 2 m/s 753 mmHg 65%
13:00 +14°C° 0 mm 3 m/s 753 mmHg 61%
14:00 +13°C° 0 mm 3 m/s 752 mmHg 64%
15:00 +13°C° 0 mm 2 m/s 752 mmHg 66%
16:00 +13°C° 0 mm 2 m/s 751 mmHg 69%
17:00 +11°C° 0 mm 3 m/s 751 mmHg 71%
18:00 +10°C° 0 mm 3 m/s 751 mmHg 73%
19:00 +9°C° 0 mm 3 m/s 751 mmHg 75%
20:00 +8°C° 0 mm 3 m/s 751 mmHg 78%
21:00 +8°C° 0 mm 3 m/s 751 mmHg 80%
22:00 +7°C° 0 mm 3 m/s 751 mmHg 82%
23:00 +7°C° 0 mm 3 m/s 751 mmHg 83%

Poimâine, 26 Februarie, Vineri

Timp Temperatura Precipitaţii Vânt Presiune Umiditate
00:00 +7°C° 0 mm 3 m/s 751 mmHg 84%
01:00 +7°C° 0 mm 3 m/s 751 mmHg 85%
02:00 +5°C° 0 mm 3 m/s 751 mmHg 86%
03:00 +5°C° 0 mm 3 m/s 751 mmHg 88%
04:00 +5°C° 0 mm 3 m/s 750 mmHg 89%
05:00 +4°C° 0 mm 3 m/s 751 mmHg 90%
06:00 +4°C° 0 mm 3 m/s 751 mmHg 91%
07:00 +4°C° 0 mm 3 m/s 751 mmHg 92%
08:00 +5°C° 0 mm 3 m/s 751 mmHg 89%
09:00 +8°C° 0 mm 3 m/s 751 mmHg 86%
10:00 +8°C° 0 mm 4 m/s 751 mmHg 83%
11:00 +10°C° 0 mm 4 m/s 750 mmHg 80%
12:00 +11°C° 0 mm 4 m/s 750 mmHg 76%
13:00 +12°C° 0 mm 4 m/s 750 mmHg 73%
14:00 +11°C° 0 mm 4 m/s 750 mmHg 74%
15:00 +10°C° 0 mm 3 m/s 749 mmHg 76%
16:00 +10°C° 0 mm 3 m/s 749 mmHg 77%
17:00 +9°C° 0.2 mm 3 m/s 749 mmHg 79%
18:00 +6°C° 0.2 mm 4 m/s 749 mmHg 81%
19:00 +5°C° 0.2 mm 4 m/s 749 mmHg 83%
20:00 +5°C° 0.2 mm 4 m/s 749 mmHg 82%
21:00 +4°C° 0.2 mm 4 m/s 749 mmHg 81%
22:00 +4°C° 0.2 mm 4 m/s 749 mmHg 79%
23:00 +3°C° 0 mm 4 m/s 750 mmHg 82%

27 Februarie, Sâmbătă

Timp Temperatura Precipitaţii Vânt Presiune Umiditate
00:00 +3°C° 0 mm 4 m/s 750 mmHg 85%
01:00 +1°C° 0 mm 4 m/s 750 mmHg 88%
02:00 +1°C° 0 mm 5 m/s 750 mmHg 87%
03:00 +1°C° 0 mm 5 m/s 750 mmHg 87%
04:00 +1°C° 0 mm 5 m/s 750 mmHg 86%
05:00 +1°C° 0 mm 5 m/s 750 mmHg 86%
06:00 +1°C° 0 mm 6 m/s 750 mmHg 86%
07:00 +1°C° 0 mm 6 m/s 750 mmHg 86%
08:00 +1°C° 0 mm 6 m/s 750 mmHg 84%
09:00 +1°C° 0 mm 6 m/s 750 mmHg 83%
10:00 +2°C° 0 mm 6 m/s 751 mmHg 82%
11:00 +2°C° 0 mm 6 m/s 751 mmHg 81%
12:00 +2°C° 0 mm 6 m/s 751 mmHg 79%
13:00 +2°C° 0 mm 6 m/s 752 mmHg 78%
14:00 +2°C° 0 mm 6 m/s 752 mmHg 76%
15:00 +2°C° 0 mm 6 m/s 752 mmHg 74%
16:00 +2°C° 0 mm 6 m/s 752 mmHg 72%
17:00 +2°C° 0 mm 5 m/s 752 mmHg 73%
18:00 +2°C° 0 mm 5 m/s 752 mmHg 74%
19:00 +3°C° 0 mm 4 m/s 753 mmHg 76%
20:00 +1°C° 0 mm 4 m/s 753 mmHg 79%
21:00 0°C° 0 mm 4 m/s 753 mmHg 81%
22:00 -1°C° 0 mm 4 m/s 754 mmHg 84%
23:00 -1°C° 0 mm 4 m/s 754 mmHg 86%

28 Februarie, Duminică

Timp Temperatura Precipitaţii Vânt Presiune Umiditate
00:00 -2°C° 0 mm 4 m/s 754 mmHg 87%
01:00 -1°C° 0 mm 3 m/s 754 mmHg 89%
02:00 -1°C° 0 mm 3 m/s 754 mmHg 90%
03:00 -1°C° 0 mm 3 m/s 754 mmHg 90%
04:00 -2°C° 0 mm 3 m/s 754 mmHg 91%
05:00 -2°C° 0 mm 3 m/s 754 mmHg 91%
06:00 -2°C° 0 mm 3 m/s 754 mmHg 90%
07:00 -2°C° 0 mm 3 m/s 755 mmHg 90%
08:00 -1°C° 0 mm 3 m/s 755 mmHg 82%
09:00 +1°C° 0 mm 3 m/s 755 mmHg 75%
10:00 +2°C° 0 mm 3 m/s 755 mmHg 67%
11:00 +3°C° 0 mm 3 m/s 755 mmHg 64%
12:00 +3°C° 0 mm 3 m/s 755 mmHg 61%
13:00 +4°C° 0 mm 3 m/s 755 mmHg 58%
14:00 +4°C° 0 mm 3 m/s 755 mmHg 60%
15:00 +4°C° 0 mm 3 m/s 755 mmHg 63%
16:00 +4°C° 0 mm 2 m/s 755 mmHg 66%
17:00 +3°C° 0 mm 2 m/s 755 mmHg 72%
18:00 +2°C° 0 mm 2 m/s 755 mmHg 78%
19:00 +1°C° 0 mm 2 m/s 755 mmHg 84%
20:00 +1°C° 0 mm 2 m/s 756 mmHg 87%
21:00 +1°C° 0 mm 2 m/s 756 mmHg 89%
22:00 -1°C° 0 mm 2 m/s 756 mmHg 92%
23:00 -1°C° 0 mm 2 m/s 757 mmHg 91%

1 Martie, Luni

Timp Temperatura Precipitaţii Vânt Presiune Umiditate
00:00 -1°C° 0 mm 2 m/s 757 mmHg 91%
01:00 -1°C° 0 mm 2 m/s 757 mmHg 90%
02:00 -1°C° 0 mm 2 m/s 757 mmHg 90%
03:00 -1°C° 0 mm 2 m/s 757 mmHg 90%
04:00 -1°C° 0 mm 2 m/s 757 mmHg 90%
05:00 -1°C° 0 mm 2 m/s 757 mmHg 91%
06:00 -1°C° 0 mm 2 m/s 757 mmHg 92%
07:00 -1°C° 0 mm 2 m/s 757 mmHg 93%
08:00 +2°C° 0 mm 2 m/s 757 mmHg 88%
09:00 +3°C° 0 mm 2 m/s 758 mmHg 83%
10:00 +4°C° 0 mm 2 m/s 758 mmHg 78%
11:00 +5°C° 0 mm 2 m/s 758 mmHg 75%
12:00 +6°C° 0 mm 2 m/s 758 mmHg 71%
13:00 +7°C° 0 mm 2 m/s 758 mmHg 68%
14:00 +6°C° 0 mm 2 m/s 757 mmHg 70%
15:00 +6°C° 0 mm 2 m/s 757 mmHg 72%
16:00 +6°C° 0 mm 2 m/s 757 mmHg 74%
17:00 +5°C° 0 mm 2 m/s 757 mmHg 79%
18:00 +3°C° 0 mm 2 m/s 757 mmHg 84%
19:00 +3°C° 0 mm 1 m/s 758 mmHg 89%
20:00 +3°C° 0 mm 1 m/s 758 mmHg 89%
21:00 +3°C° 0 mm 1 m/s 758 mmHg 90%
22:00 +2°C° 0 mm 1 m/s 758 mmHg 90%
23:00 +2°C° 0 mm 1 m/s 758 mmHg 91%
Arată mai mult

Formular de consimțământ

Meteoprog și furnizorii noștri de servicii pot stoca și accesa date personale, precum cookies, identificatori de dispozitiv sau alte tehnologii similare pe dispozitivul dumneavoastră și procesa astfel de date pentru a personaliza conținutul și reclamele, dar și pentru a oferi caracteristici de social media și pentru a analiza traficul.

  • Stocarea și/sau accesarea informațiilor pe dispozitivul dumneavoastră

    Cookies, identificatori de dispozitiv sau alte informații pot fi stocate sau accesate pe dispozitiv în scopurile indicate mai sus.

  • Reclame și conținut personalizat, evaluarea reclamelor și a conținutului, informații despre audiențe și dezvoltarea produselor

    Reclamele și conținutul pot fi personalizate pe baza unui profil. Pot fi adăugate date suplimentare pentru a personaliza mai bine reclamele și conținutul. Performanța reclamelor și conținutului poate fi măsurată. Pot fi obținute informații despre utilizatorii care au văzut reclamele și conținutul. Aceste date pot fi utilizate pentru a dezvolta sau îmbunătăți experiența utilizatorilor, sistemele și software-ul.

Dând clic pe ‘Sunt de acord’, permiteți utilizarea cookie-urilor menționate, a identificatorilor de dispozitiv, balizelor web sau altor tehnologii similare. Setările pot fi modificate din browser-ul dispozitivului dumneavoastră.

În anumite scopuri, interesele legitime pot prima asupra consimțământului. Puteți citi mai multe informații în acest sens în Politica privind Confidențialitatea Datelor și Cookie.